Hourly Weather Roundup
Issued by NWS Central Illinois

Home | Current Version | Previous Version | Text Only | Print | Product List | Glossary On
Versions: 1 2 3 4 5 6 7 8 9 10 11 12 13 14 15 16 17 18 19 20 21 22 23 24 25 26 27 28 29 30 31 32 33 34 35 36 37 38 39 40 41 42 43 44 45 46 47 48 49 50
000
NZUS43 KILX 172010
HWRILX

Area Weather Roundup
National Weather Service Lincoln IL
200 PM CST FRI NOV 17 2017

NOTE:  "FAIR" indicates few or no clouds below 12,000 feet, with
       no sigificant weather and/or obstructions to visibility.


CITY           SKY/WX    TMP DP  RH WIND       PRES   REMARKS
Bloomington    CLOUDY    40  36  86 S21G28    29.82F WCI  30
Champaign      CLOUDY    41  36  82 SE17      29.88F WCI  32
Danville       CLOUDY    43  32  65 SE13      29.88F
Decatur        CLOUDY    42  38  85 S16       29.85F WCI  34
Effingham      CLOUDY    43  40  92 E15G21    29.92F FOG
Flora          CLOUDY    46  40  82 SE13      29.92F
Galesburg      CLOUDY    43  40  88 SE14G22   29.71F
Jacksonville   CLOUDY    47  40  76 S12G22    29.75F
Lacon          CLOUDY    41  37  85 S14G23    29.77F WCI  34
Lawrenceville  CLOUDY    46  38  73 SE14      29.97F
Litchfield     CLOUDY    46  40  78 SE20G25   29.81F
$$


CITY           SKY/WX    TMP DP  RH WIND       PRES   REMARKS
Lincoln        CLOUDY    44  40  86 S17G24    29.80F
Macomb         CLOUDY    44  40  85 SE16      29.74F
Mattoon        CLOUDY    41  37  86 S16G26    29.89F WCI  33
Mt Carmel AP   CLOUDY    45  38  78 SE14      29.96F
Olney-Noble AP CLOUDY    43  41  91 SE10      29.95F
Paris AP       CLOUDY    42  37  83 SE16      29.93F WCI  33
Peoria         LGT RAIN  42  38  85 S15       29.78F FOG     WCI  34
Pontiac        CLOUDY    40  40  99 S18       29.84F WCI  31
Rantoul        CLOUDY    41  38  88 SE16      29.88F WCI  33
Robinson       CLOUDY    44  37  76 SE12      29.96F
Springfield    CLOUDY    47  40  76 S17G29    29.80F
Taylorville    CLOUDY    44  39  82 SE20      29.81F
$$

...REGIONAL REPORTS...


CITY           SKY/WX    TMP DP  RH WIND       PRES   REMARKS
Chicago O`Hare LGT RAIN  43  33  68 S16       29.84F
Kankakee       LGT RAIN  41  32  71 S9G22     29.88F
Moline         CLOUDY    43  37  79 S12       29.69F HAZE
Mount Sterling CLOUDY    45  40  80 SE14      29.71F
Mount Vernon   CLOUDY    48  41  76 SE8G18    29.90F
Pittsfield     PTSUNNY   52  44  74 SE16      29.73F
Quincy         CLOUDY    49  41  74 SE15      29.69F
Rockford       CLOUDY    39  33  79 S15G28    29.79F WCI  31
$$


CITY           SKY/WX    TMP DP  RH WIND       PRES   REMARKS
Burlington     CLOUDY    44  41  89 S13G21    29.68F FOG
Cedar Rapids   CLOUDY    40  40 100 S13       29.63F FOG     WCI  32
Des Moines     CLOUDY    50  48  93 SE14      29.55F FOG
Kirksville     CLOUDY    53  53 100 SE12      29.62F FOG
Ottumwa        CLOUDY    48  41  76 SE12      29.61F
St Louis       PTSUNNY   54  43  66 S15G26    29.77F
$$


CITY           SKY/WX    TMP DP  RH WIND       PRES   REMARKS
Terre Haute    CLOUDY    46  34  62 SE13      29.95F
Evansville     CLOUDY    46  40  79 SE9       29.99F
Indianapolis   CLOUDY    46  33  60 SE12      29.99F
Lafayette      CLOUDY    45  34  65 S8        29.93F
Madison        CLOUDY    37  32  82 S21G30    29.72F WCI  26
Milwaukee      CLOUDY    42  34  73 S15       29.81F WCI  34
$$





USA.gov is the U.S. government's official web portal to all federal, state and local government web resources and services.